Powrót do katalogu

FENGYUN 1C DEB

AktywnyLEO
NORAD 36229·DEBRIS·🇨🇳 China

Wystrzelony May 10, 1999 z Taiyuan Satellite Launch Center

Loading…

Następne Przeloty (najbliższe 24 godziny)

TLE

Starzejące sięSource: Space-Track

Epoka: Sep 11, 2026, 00:14 UTC

1 36229U 99025DVE 26254.01003815  .00001815  00000-0  10408-2 0  9994
2 36229 100.9131 175.3121 0101546 127.8578 233.1825 14.08554025670870

Śledź FENGYUN 1C DEB w czasie rzeczywistym z AllMySat

Download on the App Store